Weather History for KASW - January, 2015

Change the Weather History Date:

Wednesday, January 7, 2015

  Actual Average Record
Temperature  
Mean Temperature 4 °F -  
Max Temperature 12 °F 31 °F 64 °F (2008)
Min Temperature -4 °F 14 °F -14 °F (1970)
Degree Days  
Heating Degree Days 61    
Moisture  
Dew Point 1 °F    
Average Humidity 76    
Maximum Humidity 92    
Minimum Humidity 60    
Precipitation  
Precipitation 0.00 in - - ()
Sea Level Pressure  
Sea Level Pressure 30.47 in    
Wind  
Wind Speed 15 mph (WNW)    
Max Wind Speed 20 mph    
Max Gust Speed 26 mph    
Visibility 6 miles    
Events Snow    
Averages and records for this station are not official NWS values.
T = Trace of Precipitation, MM = Missing Value Source: NWS Daily Summary

Daily Weather History Graph

Daily Weather History Graph

Search for Another Location

Airport or City:

Trip Planner

Search our weather history database for the weather conditions in past years. The results will help you decide how hot, cold, wet, or windy it might be!

Date:

Astronomy

Jan. 07, 2015 Rise Set
Actual Time 8:09 AM EST 5:30 PM EST
Civil Twilight 7:38 AM EST 6:01 PM EST
Nautical Twilight 7:03 AM EST 6:35 PM EST
Astronomical Twilight 6:30 AM EST 7:09 PM EST
Moon 8:15 PM EST (1/7) 9:20 AM EST (1/7)
Length of Visible Light 10h 23m
Length of Day
9h 21m
Waning Gibbous, 94% of the Moon is Illuminated
Jan 7
Waning Gibbous
Jan 13
Last Quarter
Jan 20
New
Jan 26
First Quarter
Feb 3
Full

Hourly Weather History & Observations

Time (EST) Temp. Windchill Dew Point Humidity Pressure Visibility Wind Dir Wind Speed Gust Speed Precip Events Conditions
12:15 AM 10.4 °F -6.6 °F 3.2 °F 73% 30.19 in 10.0 mi West 16.1 mph 21.9 mph N/A   Clear
12:35 AM 10.4 °F -6.0 °F 3.2 °F 73% 30.19 in 7.0 mi West 15.0 mph 20.7 mph N/A   Scattered Clouds
12:55 AM 10.4 °F -6.0 °F 5.0 °F 79% 30.19 in 10.0 mi West 15.0 mph - N/A   Mostly Cloudy
1:15 AM 10.4 °F -6.6 °F 5.0 °F 79% 30.19 in 10.0 mi West 16.1 mph 21.9 mph N/A   Mostly Cloudy
1:35 AM 10.4 °F -4.8 °F 5.0 °F 79% 30.19 in 10.0 mi West 12.7 mph - N/A   Overcast
1:55 AM 10.4 °F -6.6 °F 5.0 °F 79% 30.19 in 10.0 mi West 16.1 mph - N/A Snow Light Snow
2:15 AM 10.4 °F -8.2 °F 5.0 °F 79% 30.20 in 7.0 mi West 19.6 mph - N/A Snow Light Snow
2:35 AM 10.4 °F -7.2 °F 5.0 °F 79% 30.21 in 7.0 mi West 17.3 mph 21.9 mph N/A   Overcast
2:55 AM 10.4 °F -7.2 °F 5.0 °F 79% 30.21 in 3.0 mi West 17.3 mph 23.0 mph N/A Snow Light Snow
3:15 AM 10.4 °F -7.7 °F 5.0 °F 79% 30.22 in 2.5 mi West 18.4 mph 23.0 mph N/A Snow Light Snow
3:35 AM 10.4 °F -6.6 °F 5.0 °F 79% 30.23 in 3.0 mi West 16.1 mph 24.2 mph N/A Snow Light Snow
3:55 AM 10.4 °F -7.7 °F 5.0 °F 79% 30.23 in 3.0 mi West 18.4 mph 24.2 mph N/A Snow Light Snow
4:15 AM 10.4 °F -7.2 °F 5.0 °F 79% 30.24 in 2.5 mi West 17.3 mph 24.2 mph N/A Snow Light Snow
4:35 AM 10.4 °F -7.7 °F 6.8 °F 85% 30.24 in 2.0 mi West 18.4 mph 24.2 mph N/A Snow Light Snow
4:55 AM 10.4 °F -7.2 °F 6.8 °F 85% 30.26 in 1.5 mi West 17.3 mph - N/A Snow Light Snow
5:15 AM 10.4 °F -5.4 °F 6.8 °F 85% 30.27 in 1.5 mi WNW 13.8 mph - N/A Snow Light Snow
5:35 AM 10.4 °F -3.3 °F 8.6 °F 92% 30.28 in 1.8 mi WNW 10.4 mph - N/A Snow Light Snow
5:55 AM 10.4 °F -5.4 °F 5.0 °F 79% 30.29 in 3.0 mi NW 13.8 mph - N/A Snow Light Snow
6:55 AM 10.4 °F -6.0 °F 5.0 °F 79% 30.32 in 4.0 mi NW 15.0 mph - N/A Snow Light Snow
7:15 AM 8.6 °F -7.7 °F 3.2 °F 79% 30.34 in 10.0 mi NW 13.8 mph - N/A   Scattered Clouds
7:55 AM 8.6 °F -7.0 °F 3.2 °F 79% 30.36 in 10.0 mi NW 12.7 mph - N/A   Clear
8:15 AM 8.6 °F -7.0 °F 3.2 °F 79% 30.37 in 7.0 mi NW 12.7 mph 24.2 mph N/A   Clear
8:35 AM 8.6 °F -7.7 °F 3.2 °F 79% 30.38 in 10.0 mi NW 13.8 mph 19.6 mph N/A   Clear
8:55 AM 8.6 °F -6.3 °F 3.2 °F 79% 30.40 in 10.0 mi WNW 11.5 mph 20.7 mph N/A   Clear
9:15 AM 8.6 °F -8.9 °F 3.2 °F 79% 30.41 in 10.0 mi NW 16.1 mph 19.6 mph N/A   Clear
9:35 AM 10.4 °F -6.0 °F 3.2 °F 73% 30.43 in 10.0 mi NW 15.0 mph 20.7 mph N/A   Clear
9:55 AM 10.4 °F -6.6 °F 3.2 °F 73% 30.44 in 10.0 mi WNW 16.1 mph 20.7 mph N/A   Clear
10:15 AM 10.4 °F -7.2 °F 3.2 °F 73% 30.44 in 7.0 mi WNW 17.3 mph 21.9 mph N/A   Clear
10:35 AM 10.4 °F -7.2 °F 3.2 °F 73% 30.45 in 10.0 mi NW 17.3 mph 20.7 mph N/A   Scattered Clouds
10:55 AM 12.2 °F -5.8 °F 3.2 °F 67% 30.46 in 10.0 mi WNW 19.6 mph 24.2 mph N/A   Scattered Clouds
11:15 AM 10.4 °F -7.2 °F 3.2 °F 73% 30.47 in 4.0 mi WNW 17.3 mph 26.5 mph N/A   Haze
11:35 AM 10.4 °F -7.7 °F 5.0 °F 79% 30.48 in 0.8 mi NW 18.4 mph 26.5 mph N/A Snow Light Snow
11:55 AM 10.4 °F -5.4 °F 5.0 °F 79% 30.49 in 1.2 mi NW 13.8 mph 20.7 mph N/A Snow Light Snow
12:15 PM 12.2 °F -4.8 °F 5.0 °F 73% 30.49 in 4.0 mi NW 17.3 mph 24.2 mph N/A   Haze
12:35 PM 10.4 °F -3.3 °F 5.0 °F 79% 30.51 in 0.8 mi North 10.4 mph - N/A Snow Light Snow
12:55 PM 10.4 °F -1.5 °F 5.0 °F 79% 30.51 in 1.2 mi North 8.1 mph - N/A Snow Light Snow
1:15 PM 10.4 °F -2.4 °F 3.2 °F 73% 30.51 in 1.5 mi North 9.2 mph - N/A Snow Light Snow
1:35 PM 10.4 °F -3.3 °F 5.0 °F 79% 30.52 in 0.8 mi NNW 10.4 mph - N/A Snow Light Snow
1:55 PM 10.4 °F -1.5 °F 5.0 °F 79% 30.53 in 0.8 mi NW 8.1 mph - N/A Snow Light Snow
2:15 PM 10.4 °F 0.8 °F 3.2 °F 73% 30.53 in 1.2 mi North 5.8 mph - N/A Snow Light Snow
2:35 PM 8.6 °F -1.3 °F 5.0 °F 85% 30.54 in 0.5 mi NW 5.8 mph - N/A Snow Snow
2:55 PM 8.6 °F -1.3 °F 5.0 °F 85% 30.55 in 1.0 mi North 5.8 mph - N/A Snow Light Snow
3:15 PM 8.6 °F -1.3 °F 5.0 °F 85% 30.57 in 0.5 mi NNW 5.8 mph - N/A Snow Light Snow
3:35 PM 10.4 °F -4.8 °F 5.0 °F 79% 30.58 in 0.8 mi NW 12.7 mph 23.0 mph N/A Snow Light Snow
3:55 PM 10.4 °F -5.4 °F 5.0 °F 79% 30.59 in 2.5 mi NW 13.8 mph 19.6 mph N/A Snow Light Snow
4:15 PM 10.4 °F -6.6 °F 1.4 °F 67% 30.60 in 2.5 mi NW 16.1 mph - N/A   Haze
4:35 PM 8.6 °F -7.0 °F 1.4 °F 73% 30.61 in 2.5 mi NW 12.7 mph 25.3 mph N/A   Haze
4:55 PM 8.6 °F -10.5 °F 3.2 °F 79% 30.62 in 1.0 mi WNW 19.6 mph - N/A Snow Light Snow
5:15 PM 6.8 °F -12.4 °F 3.2 °F 85% 30.64 in 1.8 mi WNW 18.4 mph 26.5 mph N/A   Overcast
5:35 PM 5.0 °F -14.2 °F 1.4 °F 85% 30.64 in 3.0 mi West 17.3 mph - N/A   Haze
5:55 PM 5.0 °F -12.3 °F -0.4 °F 78% 30.65 in 5.0 mi West 13.8 mph 21.9 mph N/A Snow Light Snow
6:15 PM 3.2 °F -15.9 °F -0.4 °F 85% 30.66 in 7.0 mi West 16.1 mph - N/A   Clear
6:35 PM 3.2 °F -17.1 °F -0.4 °F 85% 30.67 in 5.0 mi West 18.4 mph 23.0 mph N/A   Clear
6:55 PM 3.2 °F -15.3 °F -2.2 °F 78% 30.67 in 10.0 mi West 15.0 mph - N/A   Clear
7:15 PM 1.4 °F -18.2 °F -4.0 °F 78% 30.67 in 10.0 mi West 16.1 mph - N/A   Clear
7:35 PM 1.4 °F -18.8 °F -5.8 °F 72% 30.67 in 10.0 mi West 17.3 mph 20.7 mph N/A   Clear
7:55 PM 1.4 °F -18.2 °F -7.6 °F 66% 30.67 in 10.0 mi West 16.1 mph - N/A   Clear
8:15 PM -0.4 °F -20.5 °F -7.6 °F 72% 30.67 in 10.0 mi West 16.1 mph 20.7 mph N/A   Clear
8:35 PM -0.4 °F -19.9 °F -9.4 °F 66% 30.67 in 10.0 mi West 15.0 mph 19.6 mph N/A   Clear
8:55 PM -0.4 °F -19.9 °F -9.4 °F 66% 30.67 in 10.0 mi West 15.0 mph - N/A   Clear
9:15 PM -0.4 °F -15.7 °F -11.2 °F 60% 30.67 in 10.0 mi West 9.2 mph - N/A   Clear
9:35 PM -0.4 °F -18.4 °F -11.2 °F 60% 30.67 in 10.0 mi West 12.7 mph - N/A   Clear
9:55 PM -2.2 °F -20.7 °F -13.0 °F 60% 30.67 in 10.0 mi West 12.7 mph 18.4 mph N/A   Clear
10:15 PM -2.2 °F -21.5 °F -13.0 °F 60% 30.66 in 10.0 mi West 13.8 mph - N/A   Clear
10:35 PM -4.0 °F -22.1 °F -13.0 °F 65% 30.66 in 10.0 mi West 11.5 mph 19.6 mph N/A   Clear
10:55 PM -4.0 °F -22.1 °F -13.0 °F 65% 30.66 in 10.0 mi WSW 11.5 mph - N/A   Clear
11:15 PM -4.0 °F -23.0 °F -13.0 °F 65% 30.65 in 10.0 mi WSW 12.7 mph - N/A   Clear
11:35 PM -4.0 °F -20.2 °F -13.0 °F 65% 30.64 in 10.0 mi WSW 9.2 mph - N/A   Clear
11:55 PM -4.0 °F -21.2 °F -13.0 °F 65% 30.63 in 10.0 mi WSW 10.4 mph - N/A   Clear